www.pogodaiklimat.ru

Погода и климат >> Архив погоды >> Мальта >> Malta Airport


АРХИВ ПОГОДЫ в Malta Airport

Время (UTC), дата Ветер
(напр.,м/с)
 
Видим.   Явления Облачность Т
(С)
Тd
(С)
f
(%)
Тe
(С)
Тes
(С)
Комфортность P
(гПа)
Po
(гПа)
Тmin
(С)
Tmax
(С)
R
(мм)
R24
(мм)
S
(см)
12 11.12 ЮЗ 7
{14}
20 км 4/4 930 м
[Cu hum]
+18.1 +10.4 61 +17 +18 тепло 1018.3 1007.5
15 11.12 ЮЗ 7
{14}
20 км 3/1 750 м
[Cu hum Ci fib]
+17.6 +9.3 58 +17 +17 тепло 1017.0 1006.2
18 11.12 Ю 6
{14}
12 км 3/1 750 м
[Cu hum Ci fib]
+16.3 +10.9 70 +15 +15 тепло 1018.5 1007.6 +14.5 +18.5
21 11.12 Ю 5
{10}
15 км 1/1 1000 м
[Cu hum]
+16.2 +9.3 64 +15 +15 тепло 1018.8 1007.9
00 12.12 Ю 6
{11}
15 км 1/1 1000 м
[Cu hum]
+16.3 +8.2 59 +15 +15 тепло 1018.4 1007.5
03 12.12 Ю 7
{12}
15 км 1/1 1000 м
[Cu hum]
+16.7 +9.7 63 +16 +16 тепло 1018.1 1007.2
06 12.12 ЮЗ 5
{12}
15 км 1/1 1000 м
[Cu hum]
+16.7 +10.9 69 +16 +16 тепло 1019.1 1008.3 +16.1 +16.9
09 12.12 Ю 6
{10}
20 км 1/0
[Ci fib]
+18.4 +11.3 63 +18 +20 тепло 1020.4 1009.6
12 12.12 ЮЗ 5
{10}
25 км 1/1 900 м
[Cu hum Ci fib]
+19.3 +11.4 60 +20 +23 тепло 1019.8 1009.0
15 12.12 ЮЗ 4
{9}
20 км 1/0
[Ci fib]
+18.5 +9.7 57 +19 +19 тепло 1020.1 1009.3
18 12.12 ЮЗ 2
{9}
15 км ясно +16.1 +10.0 67 +16 +16 тепло 1021.5 1010.6 +15.9 +19.6
21 12.12 Ю 3
{4}
15 км ясно +16.0 +10.9 72 +16 +16 тепло 1022.4 1011.5
00 13.12 Ю 3
{6}
15 км ясно +15.6 +11.0 74 +15 +15 тепло 1022.0 1011.1
03 13.12 Ю 3
{8}
15 км ясно +14.8 +12.0 83 +14 +14 тепло 1021.4 1010.5
06 13.12 ЮЗ 3
{8}
15 км 1/0
[Ci fib]
+15.5 +12.4 82 +15 +15 тепло 1022.8 1011.9 +14.4 +16.3
09 13.12 ЮЗ 4
{6}
25 км 1/1 540 м
[Cu hum Ci fib]
+18.9 +14.7 77 +20 +23 тепло 1023.6 1012.9
12 13.12 З 4
{6}
30 км 5/1 660 м
[Cu hum Ci]
+19.9 +12.5 62 +22 +24 комфорт 1022.2 1011.4
15 13.12 З 5
{6}
20 км 4/1 600 м
[Cu hum Ci fib]
+18.2 +11.2 64 +18 +18 тепло 1021.9 1011.1
18 13.12 С 5
{7}
12 км 1/1 540 м
[Sc]
+14.4 +12.6 89 +13 +13 по сезону 1023.0 1012.1 +14.2 +20.2
21 13.12 СЗ 6
{8}
12 км 1/1 540 м
[Cu hum Ci fib]
+14.2 +11.6 84 +12 +12 по сезону 1023.8 1012.9
00 14.12 СЗ 5
{8}
12 км 1/1
[Cu hum]
+13.6 +10.7 83 +12 +12 по сезону 1023.6 1012.6
03 14.12 СЗ 4
{7}
12 км 1/1 600 м
[Cu hum]
+12.8 +9.7 81 +11 +11 по сезону 1023.3 1012.3
06 14.12 СЗ 2
{7}
15 км 3/3 900 м
[Sc]
+12.4 +8.9 79 +11 +11 по сезону 1023.9 1012.9 +11.9 +14.4
09 14.12 СЗ 5
{9}
20 км 5/5 720 м
[Cu Sc]
+16.3 +9.5 64 +15 +16 по сезону 1024.3 1013.4
12 14.12 СЗ 7
{11}
20 км 4/4 840 м
[Cu hum Ci fib]
+17.0 +9.2 60 +16 +17 по сезону 1022.7 1011.8
15 14.12 З 6
{11}
20 км 1/1 870 м
[Cu hum]
+15.6 +9.0 65 +14 +14 по сезону 1021.8 1010.9
18 14.12 З 4
{11}
15 км 5/5 750 м
[Sc]
+14.7 +10.3 75 +14 +14 по сезону 1021.6 1010.7 +12.4 +17.6
21 14.12 З 3
{7}
15 км 4/4 700 м
[Cu Sc]
+14.5 +10.9 79 +14 +14 тепло 1020.9 1010.0
00 15.12 З 5
{10}
12 км 4/4 660 м
[Cu Sc]
+16.1 +11.2 73 +15 +15 тепло 1018.9 1008.1
03 15.12 ЮЗ 6
{10}
12 км 5/5 840 м
[Cu Sc]
+16.3 +11.2 72 +15 +15 тепло 1017.9 1007.1
06 15.12 З 4
{10}
12 км {ливн. осадки} 1/1 800 м
[Cu Sc]
+15.6 +11.2 75 +15 +15 тепло 1016.5 1005.6 +13.6 +17.0 0.0
09 15.12 З 5
{11}
15 км 3/3 700 м
[Cu hum Ci fib]
+17.4 +11.6 69 +17 +18 тепло 1016.5 1005.8
12 15.12 ЮЗ 10
{14}
20 км 4/0
[Ci fib]
+18.4 +10.7 61 +18 +18 тепло 1013.7 1002.9
15 15.12 ЮЗ 8
{14}
20 км 4/0
[Ci fib]
+17.7 +11.3 66 +17 +17 тепло 1012.7 1001.9
18 15.12 ЮЗ 6
{15}
12 км 5/0
[Ci sp]
+17.3 +11.2 67 +16 +16 тепло 1012.1 1001.3 +15.3 +18.7
21 15.12 ЮЗ 7
{12}
12 км ясно +17.4 +12.3 72 +16 +16 тепло 1011.9 1001.1
00 16.12 ЮЗ 6
{12}
12 км 8/0
[Ac As]
+17.7 +12.1 70 +17 +17 тепло 1010.7 1000.0
03 16.12 З 7
{12}
12 км {дождь} 9/4 800 м
[Cu med, cong Cs]
+17.5 +11.6 68 +17 +17 тепло 1010.2 999.5 0.0
06 16.12 З 4 12 км в посл. час ливневой дождь 10/1 800 м
[Cu med, cong Ac As Ci sp]
+16.3 +10.4 68 +16 +16 тепло 1009.8 999.0 +16.2 +17.9 0.0
09 16.12 ЮЗ 3
{8}
8000 м слабый дождь 10/3 750 м
[Cu Sc Ac As]
+14.9 +11.7 81 +14 +15 по сезону 1010.3 999.5 2
12 16.12 З 5
{8}
15 км {дождь} 9/5 630 м
[Cu med, cong Ac As Ci sp]
+16.1 +11.3 73 +15 +16 по сезону 1009.3 998.5
15 16.12 СЗ 5
{10}
15 км 8/4 540 м
[Cu med, cong Ac As Ci fib]
+15.8 +11.7 77 +15 +15 по сезону 1009.4 998.7
18 16.12 СЗ 5
{10}
12 км 8/5 900 м
[Cu med, cong Ac As]
+15.1 +10.7 75 +14 +14 по сезону 1011.3 1000.5 +14.4 +17.3
21 16.12 СЗ 7
{9}
12 км {дождь} 9/9 600 м
[Cu Sc]
+13.6 +9.7 77 +11 +11 по сезону 1013.0 1002.1 0.0
00 17.12 СЗ 6
{11}
12 км {дождь} 5/1 750 м
[Cu hum Ac trans]
+12.3 +6.1 66 +10 +10 по сезону 1014.3 1003.3
03 17.12 СЗ 7
{11}
12 км 5/3 750 м
[Cu Sc Ac trans]
+13.2 +5.4 59 +11 +11 по сезону 1014.8 1003.8
06 17.12 СЗ 7
{13}
12 км 5/5 870 м
[Cu Sc]
+12.2 +3.9 57 +9 +9 по сезону 1016.4 1005.4 +11.7 +15.2
09 17.12 СЗ 7
{11}
25 км 4/3 1440 м
[Sc diur, vesp]
+14.1 +4.1 51 +12 +13 по сезону 1018.3 1007.3
12 17.12 СЗ 9
{15}
25 км в посл. час ливневой дождь 4/4 1230 м
[Sc diur, vesp]
+14.9 +5.6 54 +13 +13 по сезону 1017.9 1007.0 0.2
15 17.12 СЗ 8
{17}
20 км {ливн. осадки} 5/4 1200 м
[Sc diur, vesp Ci fib]
+13.3 +4.8 56 +11 +11 прохладно 1018.3 1007.3 0.2
18 17.12 СЗ 7
{17}
12 км слабый ливневой дождь 5/4 1170 м
[Cu med, cong Ac cuf]
+10.5 +5.7 72 +7 +7 холодно 1019.9 1008.8 +10.4 +15.9 0.2
21 17.12 СЗ 7
{17}
12 км {ливн. осадки} 5/3 900 м
[Cu med, cong Ac cuf]
+11.8 +4.9 63 +9 +9 прохладно 1020.5 1009.5 0.4
00 18.12 СЗ 5
{17}
40 км {ливн. осадки} 5/3 900 м
[Cu hum Ac As]
+11.0 +5.1 67 +8 +8 прохладно 1020.5 1009.4 0.2
03 18.12 С 4
{16}
10 км слабый ливневой дождь 6/4 800 м
[Cu med, cong Ac As]
+8.9 +7.4 90 +6 +6 холодно 1020.0 1008.9 5
06 18.12 С 3 12 км 9/5 900 м
[Cu med, cong Ac cuf Ci sp]
+10.4 +5.1 70 +8 +8 прохладно 1020.8 1009.7 +8.8 +12.2
09 18.12 СЗ 7
{13}
15 км {ливн. осадки} 5/5 1050 м
[Cu hum Ac As]
+11.9 +3.1 55 +9 +10 прохладно 1022.3 1011.3 0.0

 

Местоположение метеостанции Malta Airport (Мальта): широта 35.85 долгота 14.48 высота над уровнем моря 91 м.

В архиве по умолчанию представлена погода в Malta Airport за последнюю неделю. Архивные данные за месяц целиком и за предыдущие месяцы, начиная с января 2011 года, Вы можете получить, выбрав интересующий диапазон дат из раскрывающегося списка и нажав кнопку "Ввод!".

Внимание! Время в таблицах - всемирное. Для получения местного времени необходимо прибавить поправку, которая в Malta Airport равна 1 ч.

Смотрите также архив погоды в соседних городах и на ближайших метеорологических станциях:

Погода в Cozzo Spadaro (Италия) (109 км)
Погода в Gela (Италия) (139 км)
Погода в Siracusa (Италия) (153 км)
Погода в Catania Sigonella (Италия) (177 км)
Погода в Catania Fontanaross (Италия) (187 км)
Погода в Enna (Италия) (192 км)
Погода в Prizzi (Италия) (228 км)
Погода в Gibilmanna (Италия) (240 км)
Погода в Pantelleria (Италия) (249 км)
Погода в Capo Spartivento (Италия) (270 км)

Пояснения к столбцам:

Ветер - указаны скорость ветра в м/с - средняя за 10 мин, порывы в срок и между сроками (в фигурных скобках) и направление, откуда дует ветер: С - северный, СВ - северо-восточный, В - восточный, ЮВ - юго-восточный, Ю - южный, ЮЗ - юго-западный, З - западный, СЗ - северо-западный.
Видимость - горизонтальная дальность видимости в метрах или километрах. При видимости от 1 до 10 км при отсутствии осадков обычно наблюдается дымка, при ухудшении видимости до 1 км и менее - туман. В сухую погоду видимость может ухудшаться дымом, пылью или мглою.
Явления - указаны атмосферные явления, наблюдавшиеся в срок или в последний час перед сроком; фигурными скобками обозначены явления, наблюдавшиеся между сроками (за 1-3 часа до срока); квадратными скобками обозначены град или гололедные отложения с указанием их диаметра в мм.
Облачность - указаны через наклонную черту общая и нижняя облачность в баллах и высота нижней границы облаков в метрах; квадратными скобками обозначены формы облаков: Ci - перистые, Cs - перисто-слоистые, Cc - перисто-кучевые, Ac - высококучевые, As - высокослоистые, Sc - слоисто-кучевые, Ns - слоисто-дождевые, Cu - кучевые, Cb - кучево-дождевые. Подробнее классификацию облаков см. в Атласе облаков (PDF).
T - Температура воздуха - температура, измеренная на высоте 2 м над землей.
Td - Температура точки росы - температура, при понижении до которой содержащийся в воздухе водяной пар достигнет насыщения.
f - Относительная влажность воздуха - влажноcть воздуха, измеренная на высоте 2 м над землей.
Te - Эффективная температура - температура, которую ощущает одетый по сезону человек в тени. Характеристика душности погоды. При расчете учитывается влияние влажности воздуха и скорости ветра на теплоощущения человека.
Tes - Эффективная температура на солнце - температура, которую ощущает человек, с поправкой на солнечный нагрев. Характеристика знойности погоды. Зависит от высоты солнца над горизонтом, облачности и скорости ветра. Ночью, в пасмурную погоду, а также при ветре 12 м/с и более поправка равна нулю.
P - Атмосферное давление - приведенное к уровню моря атмосферное давление.
Po - Атмосферное давление - измеренное на уровне метеостанции атмосферное давление.
Tmin - Минимальная температура - минимум температуры воздуха на высоте 2 м над землей.
Tmax - Максимальная температура - максимум температуры воздуха на высоте 2 м над землей.
R - Количество осадков - Количество выпавших осадков за период времени, мм. При наведении курсора мыши на число - период времени, за который выпало указанное количество осадков.
R24 - Количество осадков - Количество выпавших осадков за 24 часа, мм.
S - Снежный покров - Высота снежного покрова, см. При наведении курсора мыши на число - состояние снежного покрова и степень покрытия местности в баллах.